Mount Pleasant, MI

12:11 PM EDT on September 26, 2016 (GMT -0400)
Mount Pleasant Municipal

Weather History for KMOP - May, 2013

Change the Weather History Date:

Saturday, May 4, 2013

  Actual Average (KAMN) Record (KAMN)
Temperature  
Mean Temperature 62 °F -  
Max Temperature 74 °F 63 °F 86 °F (1949)
Min Temperature 51 °F 38 °F 23 °F (2005)
Degree Days  
Heating Degree Days 2    
Growing Degree Days 12 (Base 50)    
Moisture  
Dew Point 40 °F    
Average Humidity 46    
Maximum Humidity 85    
Minimum Humidity 20    
Precipitation  
Precipitation 0.00 in - - ()
Sea Level Pressure  
Sea Level Pressure 30.09 in    
Wind  
Wind Speed 6 mph (East)    
Max Wind Speed 18 mph    
Max Gust Speed 23 mph    
Visibility 10 miles    
Events      
Averages and records for this station are not official NWS values.
T = Trace of Precipitation, MM = Missing Value Source: NWS Daily Summary

Daily Weather History Graph

Daily Weather History Graph

Search for Another Location

Airport or City:

Trip Planner

Search our weather history database for the weather conditions in past years. The results will help you decide how hot, cold, wet, or windy it might be!

Date:

Astronomy

May. 04, 2013 Rise Set
Actual Time 6:26 AM EDT 8:45 PM EDT
Civil Twilight 5:55 AM EDT 9:17 PM EDT
Nautical Twilight 5:15 AM EDT 9:56 PM EDT
Astronomical Twilight 4:32 AM EDT 10:40 PM EDT
Moon 3:34 AM EDT (5/4) 3:33 PM EDT (5/4)
Length of Visible Light 15h 21m
Length of Day
14h 18m
Waning Crescent, 27% of the Moon is Illuminated
May 4
Waning Crescent
May 9
New
May 18
First Quarter
May 25
Full
May 31
Last Quarter

Hourly Weather History & Observations

Time (EDT) Temp. Dew Point Humidity Pressure Visibility Wind Dir Wind Speed Gust Speed Precip Events Conditions
12:15 AM 60.8 °F 34.9 °F 38% 30.08 in 10.0 mi East 4.6 mph - N/A   Clear
12:35 AM 60.3 °F 36.5 °F 41% 30.08 in 10.0 mi East 6.9 mph - N/A   Clear
12:55 AM 60.1 °F 35.8 °F 40% 30.08 in 10.0 mi ENE 3.5 mph - N/A   Clear
1:14 AM 59.5 °F 36.3 °F 42% 30.08 in 10.0 mi East 4.6 mph - N/A   Clear
1:35 AM 59.0 °F 36.9 °F 44% 30.08 in 10.0 mi East 4.6 mph - N/A   Clear
1:55 AM 57.7 °F 37.0 °F 46% 30.07 in 10.0 mi East 3.5 mph - N/A   Clear
2:14 AM 57.9 °F 37.4 °F 46% 30.07 in 10.0 mi East 3.5 mph - N/A   Clear
2:35 AM 58.1 °F 37.4 °F 46% 30.07 in 10.0 mi East 4.6 mph - N/A   Clear
2:55 AM 56.8 °F 39.9 °F 53% 30.07 in 10.0 mi East 4.6 mph - N/A   Clear
3:14 AM 57.9 °F 40.1 °F 52% 30.07 in 10.0 mi East 4.6 mph - N/A   Clear
3:35 AM 56.3 °F 41.2 °F 57% 30.07 in 10.0 mi East 4.6 mph - N/A   Clear
3:55 AM 55.6 °F 41.9 °F 60% 30.07 in 10.0 mi East 4.6 mph - N/A   Clear
4:14 AM 55.9 °F 41.7 °F 59% 30.07 in 10.0 mi East 4.6 mph - N/A   Clear
4:35 AM 55.6 °F 42.3 °F 61% 30.08 in 10.0 mi East 4.6 mph - N/A   Clear
4:55 AM 55.4 °F 42.3 °F 61% 30.08 in 10.0 mi East 3.5 mph - N/A   Clear
5:14 AM 55.8 °F 42.4 °F 61% 30.08 in 10.0 mi East 3.5 mph - N/A   Clear
5:35 AM 54.0 °F 42.8 °F 66% 30.08 in 10.0 mi East 3.5 mph - N/A   Clear
5:55 AM 54.1 °F 43.2 °F 66% 30.09 in 10.0 mi Calm Calm - N/A   Clear
6:14 AM 54.9 °F 43.3 °F 65% 30.09 in 10.0 mi Calm Calm - N/A   Clear
6:35 AM 52.5 °F 46.0 °F 79% 30.09 in 10.0 mi Calm Calm - N/A   Clear
6:55 AM 53.2 °F 45.5 °F 75% 30.10 in 10.0 mi Calm Calm - N/A   Clear
7:14 AM 51.3 °F 46.8 °F 85% 30.10 in 10.0 mi Calm Calm - N/A   Clear
7:35 AM 54.7 °F 47.7 °F 77% 30.10 in 10.0 mi Calm Calm - N/A   Clear
7:55 AM 57.4 °F 47.3 °F 69% 30.10 in 10.0 mi Calm Calm - N/A   Clear
8:14 AM 59.9 °F 47.1 °F 63% 30.11 in 10.0 mi SE 4.6 mph - N/A   Clear
8:35 AM 60.3 °F 46.6 °F 61% 30.11 in 10.0 mi SE 8.1 mph - N/A   Clear
8:55 AM 61.0 °F 47.5 °F 61% 30.11 in 10.0 mi SE 5.8 mph - N/A   Clear
9:14 AM 61.7 °F 47.3 °F 59% 30.11 in 10.0 mi SE 4.6 mph - N/A   Clear
9:35 AM 62.6 °F 47.7 °F 58% 30.12 in 10.0 mi ESE 6.9 mph - N/A   Clear
9:55 AM 63.3 °F 46.9 °F 55% 30.12 in 10.0 mi SE 6.9 mph - N/A   Clear
10:14 AM 63.9 °F 46.9 °F 54% 30.12 in 10.0 mi ESE 6.9 mph - N/A   Clear
10:35 AM 65.1 °F 46.6 °F 51% 30.11 in 10.0 mi SE 5.8 mph - N/A   Clear
10:55 AM 65.8 °F 46.0 °F 49% 30.12 in 10.0 mi SE 6.9 mph - N/A   Clear
11:14 AM 66.9 °F 45.9 °F 47% 30.12 in 10.0 mi ESE 6.9 mph - N/A   Clear
11:35 AM 67.3 °F 45.9 °F 46% 30.11 in 10.0 mi SSE 4.6 mph - N/A   Clear
11:55 AM 68.0 °F 45.5 °F 44% 30.11 in 10.0 mi SSE 5.8 mph - N/A   Clear
12:14 PM 69.1 °F 45.3 °F 42% 30.11 in 10.0 mi East 5.8 mph - N/A   Clear
12:35 PM 69.6 °F 45.5 °F 42% 30.11 in 10.0 mi ESE 3.5 mph - N/A   Clear
12:55 PM 71.1 °F 43.9 °F 38% 30.11 in 10.0 mi East 5.8 mph - N/A   Clear
1:15 PM 71.6 °F 44.2 °F 37% 30.10 in 10.0 mi East 8.1 mph - N/A   Clear
1:40 PM 73.4 °F 43.9 °F 35% 30.09 in 10.0 mi ESE 9.2 mph - N/A   Clear
1:55 PM 74.1 °F 41.5 °F 31% 30.09 in 10.0 mi East 12.7 mph 21.9 mph N/A   Clear
2:15 PM 73.4 °F 40.5 °F 30% 30.09 in 10.0 mi East 13.8 mph 21.9 mph N/A   Clear
2:35 PM 73.9 °F 39.4 °F 29% 30.09 in 10.0 mi ESE 13.8 mph 18.4 mph N/A   Clear
2:54 PM 74.1 °F 39.2 °F 28% 30.08 in 10.0 mi ESE 11.5 mph 21.9 mph N/A   Clear
3:15 PM 74.5 °F 40.1 °F 29% 30.08 in 10.0 mi East 17.3 mph 21.9 mph N/A   Clear
3:35 PM 74.3 °F 37.8 °F 27% 30.07 in 10.0 mi East 18.4 mph 23.0 mph N/A   Clear
3:54 PM 73.2 °F 37.6 °F 27% 30.06 in 10.0 mi East 12.7 mph 17.3 mph N/A   Clear
4:15 PM 74.1 °F 36.5 °F 25% 30.06 in 10.0 mi ESE 12.7 mph 20.7 mph N/A   Clear
4:35 PM 74.3 °F 36.7 °F 25% 30.06 in 10.0 mi East 16.1 mph 21.9 mph N/A   Clear
4:54 PM 73.9 °F 35.2 °F 24% 30.06 in 10.0 mi ESE 15.0 mph 21.9 mph N/A   Clear
5:15 PM 74.3 °F 33.8 °F 23% 30.06 in 10.0 mi ESE 10.4 mph 18.4 mph N/A   Clear
5:35 PM 73.6 °F 32.0 °F 22% 30.05 in 10.0 mi ESE 12.7 mph 16.1 mph N/A   Clear
5:54 PM 73.9 °F 33.1 °F 22% 30.05 in 10.0 mi East 15.0 mph 18.4 mph N/A   Clear
6:15 PM 73.4 °F 33.4 °F 23% 30.05 in 10.0 mi East 10.4 mph - N/A   Clear
6:35 PM 73.4 °F 33.8 °F 23% 30.05 in 10.0 mi East 15.0 mph - N/A   Clear
6:54 PM 73.0 °F 32.2 °F 22% 30.05 in 10.0 mi ESE 13.8 mph - N/A   Clear
7:15 PM 72.1 °F 28.6 °F 20% 30.05 in 10.0 mi East 17.3 mph - N/A   Scattered Clouds
7:35 PM 71.1 °F 29.7 °F 22% 30.06 in 10.0 mi ESE 9.2 mph - N/A   Clear
7:54 PM 70.3 °F 28.4 °F 21% 30.06 in 10.0 mi ESE 8.1 mph - N/A   Clear
8:15 PM 68.7 °F 30.0 °F 24% 30.06 in 10.0 mi East 5.8 mph - N/A   Clear
8:35 PM 67.6 °F 28.9 °F 24% 30.07 in 10.0 mi ENE 3.5 mph - N/A   Clear
8:54 PM 64.6 °F 31.5 °F 29% 30.07 in 10.0 mi ENE 4.6 mph - N/A   Clear
9:15 PM 63.1 °F 34.5 °F 34% 30.08 in 10.0 mi ENE 3.5 mph - N/A   Clear
9:35 PM 61.0 °F 37.2 °F 41% 30.09 in 10.0 mi ENE 3.5 mph - N/A   Clear
9:54 PM 58.3 °F 40.1 °F 51% 30.10 in 10.0 mi Calm Calm - N/A   Clear
10:15 PM 54.9 °F 42.8 °F 64% 30.11 in 10.0 mi Calm Calm - N/A   Clear
10:34 PM 55.9 °F 42.8 °F 61% 30.11 in 10.0 mi Calm Calm - N/A   Clear
10:55 PM 54.5 °F 46.0 °F 73% 30.11 in 10.0 mi Calm Calm - N/A   Clear
11:15 PM 53.1 °F 45.7 °F 76% 30.12 in 10.0 mi Calm Calm - N/A   Clear
11:34 PM 52.5 °F 45.9 °F 78% 30.12 in 10.0 mi Calm Calm - N/A   Clear
11:55 PM 52.0 °F 47.3 °F 84% 30.12 in 10.0 mi Calm Calm - N/A   Clear